Weather History for Pinedale, WY

Change the Weather History Date:

Tuesday, January 21, 2014

  Actual Average (KBPI) Record (KBPI)
Temperature  
Mean Temperature 16 °F 11 °F  
Max Temperature 35 °F 26 °F 44 °F (1977)
Min Temperature -4 °F -4 °F -23 °F (2008)
Degree Days  
Heating Degree Days 50 54  
Month to date heating degree days 1134  
Since 1 July heating degree days 5573  
Cooling Degree Days 0 0  
Month to date cooling degree days 0  
Year to date cooling degree days 0  
Moisture  
Dew Point 4 °F    
Average Humidity 65    
Maximum Humidity 85    
Minimum Humidity 48    
Precipitation  
Precipitation 0.00 in 0.01 in 0.20 in (2012)
Month to date precipitation 0.22  
Year to date precipitation 0.22  
Sea Level Pressure  
Sea Level Pressure 30.35 in    
Wind  
Wind Speed 7 mph (WNW)    
Max Wind Speed 15 mph    
Max Gust Speed -    
Visibility 10 miles    
Events      
T = Trace of Precipitation, MM = Missing Value Source: NWS Daily Summary

Daily Weather History Graph

Daily Weather History Graph

Search for Another Location

Airport:

Trip Planner

Search our weather history database for the weather conditions in past years. The results will help you decide how hot, cold, wet, or windy it might be!

Date:

Astronomy

Jan. 21, 2014 Rise Set
Actual Time 7:43 AM MST 5:18 PM MST
Civil Twilight 7:12 AM MST 5:49 PM MST
Nautical Twilight 6:38 AM MST 6:23 PM MST
Astronomical Twilight 6:04 AM MST 6:57 PM MST
Moon 11:03 PM MST (1/21) 10:06 AM MST (1/21)
Length of Visible Light 10h 36m
Length of Day
9h 34m
Waning Gibbous, 74% of the Moon is Illuminated
Jan 21
Waning Gibbous
Jan 23
Last Quarter
Jan 30
New
Feb 6
First Quarter
Feb 14
Full

Hourly Weather History & Observations

Time (MST) Temp. Windchill Dew Point Humidity Pressure Visibility Wind Dir Wind Speed Gust Speed Precip Events Conditions
12:15 AM 1.4 °F -9.9 °F -4.0 °F 78% 30.47 in 10.0 mi West 5.8 mph - N/A   Clear
12:35 AM -0.4 °F -13.4 °F -4.0 °F 85% 30.47 in 10.0 mi West 6.9 mph - N/A   Clear
12:55 AM -0.4 °F -14.7 °F -5.8 °F 78% 30.47 in 10.0 mi WNW 8.1 mph - N/A   Clear
1:15 AM -0.4 °F -14.7 °F -5.8 °F 78% 30.46 in 10.0 mi WNW 8.1 mph - N/A   Clear
1:35 AM -0.4 °F -18.4 °F -5.8 °F 78% 30.46 in 10.0 mi WNW 12.7 mph - N/A   Clear
1:55 AM -0.4 °F -13.4 °F -7.6 °F 72% 30.45 in 10.0 mi NW 6.9 mph - N/A   Clear
2:15 AM -2.2 °F -16.8 °F -7.6 °F 78% 30.45 in 10.0 mi WNW 8.1 mph - N/A   Clear
2:35 AM -2.2 °F -19.9 °F -7.6 °F 78% 30.45 in 10.0 mi NW 11.5 mph - N/A   Clear
2:55 AM -0.4 °F -18.4 °F -7.6 °F 72% 30.45 in 10.0 mi WNW 12.7 mph - N/A   Clear
3:15 AM -4.0 °F -14.6 °F -9.4 °F 78% 30.45 in 10.0 mi WNW 4.6 mph - N/A   Clear
3:35 AM -2.2 °F -16.8 °F -9.4 °F 71% 30.44 in 10.0 mi WNW 8.1 mph - N/A   Clear
3:55 AM -4.0 °F -19.0 °F -9.4 °F 78% 30.44 in 10.0 mi NW 8.1 mph - N/A   Clear
4:15 AM -4.0 °F -19.0 °F -9.4 °F 78% 30.43 in 10.0 mi WNW 8.1 mph - N/A   Clear
4:35 AM -4.0 °F -20.2 °F -9.4 °F 78% 30.43 in 10.0 mi West 9.2 mph - N/A   Clear
4:55 AM 1.4 °F -16.9 °F -7.6 °F 66% 30.42 in 10.0 mi WNW 13.8 mph - N/A   Clear
5:15 AM -0.4 °F -14.7 °F -9.4 °F 66% 30.42 in 10.0 mi WNW 8.1 mph - N/A   Clear
5:35 AM -4.0 °F -20.2 °F -11.2 °F 71% 30.42 in 10.0 mi NW 9.2 mph - N/A   Clear
5:55 AM -4.0 °F -19.0 °F -9.4 °F 78% 30.41 in 10.0 mi WNW 8.1 mph - N/A   Clear
6:15 AM -2.2 °F -18.0 °F -9.4 °F 71% 30.40 in 10.0 mi WNW 9.2 mph - N/A   Clear
6:35 AM -2.2 °F -18.9 °F -9.4 °F 71% 30.40 in 10.0 mi WNW 10.4 mph - N/A   Clear
6:55 AM -0.4 °F -15.7 °F -7.6 °F 72% 30.40 in 10.0 mi West 9.2 mph - N/A   Clear
7:15 AM -0.4 °F -16.7 °F -7.6 °F 72% 30.40 in 10.0 mi West 10.4 mph - N/A   Clear
7:35 AM 1.4 °F -11.3 °F -7.6 °F 66% 30.40 in 10.0 mi West 6.9 mph - N/A   Clear
8:15 AM 5.0 °F -6.9 °F -5.8 °F 61% 30.39 in 10.0 mi West 6.9 mph - N/A   Clear
8:35 AM 5.0 °F -5.6 °F -4.0 °F 66% 30.39 in 10.0 mi WNW 5.8 mph - N/A   Clear
8:55 AM 8.6 °F -3.7 °F -0.4 °F 67% 30.39 in 10.0 mi West 8.1 mph - N/A   Clear
9:15 AM 10.4 °F 0.8 °F -0.4 °F 62% 30.40 in 10.0 mi WNW 5.8 mph - N/A   Clear
9:35 AM 12.2 °F - 1.4 °F 62% 30.40 in 10.0 mi Calm Calm - N/A   Clear
9:55 AM 15.8 °F 8.6 °F 3.2 °F 58% 30.40 in 10.0 mi NW 4.6 mph - N/A   Clear
10:15 AM 19.4 °F - 3.2 °F 49% 30.40 in 10.0 mi Calm Calm - N/A   Clear
10:35 AM 12.2 °F 6.1 °F 3.2 °F 67% 30.40 in 10.0 mi ESE 3.5 mph - N/A   Clear
10:55 AM 15.8 °F - 3.2 °F 58% 30.39 in 10.0 mi Calm Calm - N/A   Clear
11:15 AM 19.4 °F 14.3 °F 5.0 °F 54% 30.39 in 10.0 mi East 3.5 mph - N/A   Clear
11:35 AM 21.2 °F - 8.6 °F 58% 30.37 in 10.0 mi Calm Calm - N/A   Clear
11:55 AM 26.6 °F 22.6 °F 10.4 °F 51% 30.36 in 10.0 mi East 3.5 mph - N/A   Clear
12:15 PM 26.6 °F 21.2 °F 12.2 °F 55% 30.35 in 10.0 mi East 4.6 mph - N/A   Clear
12:35 PM 26.6 °F 19.1 °F 12.2 °F 55% 30.34 in 10.0 mi ESE 6.9 mph - N/A   Clear
12:55 PM 30.2 °F - 14.0 °F 51% 30.34 in 10.0 mi Calm Calm - N/A   Clear
1:15 PM 33.8 °F 27.0 °F 15.8 °F 48% 30.32 in 10.0 mi WNW 8.1 mph - N/A   Clear
1:35 PM 35.6 °F 28.0 °F 17.6 °F 48% 30.30 in 10.0 mi WNW 10.4 mph - N/A   Clear
1:55 PM 35.6 °F 26.2 °F 17.6 °F 48% 30.29 in 10.0 mi WNW 15.0 mph - N/A   Clear
2:15 PM 35.6 °F 26.6 °F 17.6 °F 48% 30.29 in 10.0 mi WNW 13.8 mph - N/A   Clear
2:35 PM 35.6 °F 28.0 °F 19.4 °F 52% 30.29 in 10.0 mi NW 10.4 mph - N/A   Clear
2:55 PM 35.6 °F 28.6 °F 19.4 °F 52% 30.29 in 10.0 mi NW 9.2 mph - N/A   Clear
3:15 PM 35.6 °F 30.7 °F 19.4 °F 52% 30.29 in 10.0 mi NNW 5.8 mph - N/A   Clear
3:35 PM 35.6 °F - 19.4 °F 52% 30.29 in 10.0 mi Calm Calm - N/A   Clear
3:55 PM 33.8 °F 27.0 °F 17.6 °F 52% 30.29 in 10.0 mi WNW 8.1 mph - N/A   Clear
4:15 PM 33.8 °F 28.6 °F 17.6 °F 52% 30.29 in 10.0 mi West 5.8 mph - N/A   Clear
4:35 PM 33.8 °F 27.7 °F 17.6 °F 52% 30.28 in 10.0 mi WNW 6.9 mph - N/A   Clear
4:55 PM 32.0 °F 27.5 °F 17.6 °F 55% 30.27 in 10.0 mi West 4.6 mph - N/A   Clear
5:15 PM 30.2 °F 22.6 °F 15.8 °F 55% 30.27 in 10.0 mi West 8.1 mph - N/A   Clear
5:35 PM 26.6 °F 16.8 °F 14.0 °F 59% 30.27 in 10.0 mi West 10.4 mph - N/A   Clear
5:55 PM 23.0 °F 18.4 °F 14.0 °F 68% 30.27 in 10.0 mi NW 3.5 mph - N/A   Clear
6:15 PM 24.8 °F 16.9 °F 12.2 °F 59% 30.27 in 10.0 mi WNW 6.9 mph - N/A   Clear
6:35 PM 24.8 °F 16.9 °F 12.2 °F 59% 30.27 in 10.0 mi WNW 6.9 mph - N/A   Clear
6:55 PM 21.2 °F 10.9 °F 10.4 °F 63% 30.27 in 10.0 mi West 9.2 mph - N/A   Clear
7:15 PM 19.4 °F 8.6 °F 10.4 °F 68% 30.27 in 10.0 mi West 9.2 mph - N/A   Clear
7:35 PM 21.2 °F 13.6 °F 10.4 °F 63% 30.27 in 10.0 mi WNW 5.8 mph - N/A   Clear
7:55 PM 17.6 °F 12.3 °F 10.4 °F 73% 30.27 in 10.0 mi WNW 3.5 mph - N/A   Clear
8:15 PM 19.4 °F 12.8 °F 10.4 °F 68% 30.27 in 10.0 mi West 4.6 mph - N/A   Clear
8:35 PM 21.2 °F 16.4 °F 10.4 °F 63% 30.26 in 10.0 mi NW 3.5 mph - N/A   Clear
8:55 PM 17.6 °F 9.3 °F 8.6 °F 68% 30.26 in 10.0 mi West 5.8 mph - N/A   Clear
9:15 PM 17.6 °F 12.3 °F 8.6 °F 68% 30.26 in 10.0 mi NNW 3.5 mph - N/A   Clear
9:35 PM 21.2 °F - 10.4 °F 63% 30.25 in 10.0 mi Calm Calm - N/A   Clear
9:55 PM 17.6 °F 10.7 °F 8.6 °F 68% 30.25 in 10.0 mi NW 4.6 mph - N/A   Clear
10:15 PM 8.6 °F -1.3 °F 1.4 °F 73% 30.25 in 10.0 mi NW 5.8 mph - N/A   Clear
10:35 PM 8.6 °F -2.6 °F 3.2 °F 79% 30.24 in 10.0 mi NNW 6.9 mph - N/A   Clear
10:55 PM 10.4 °F -0.4 °F 5.0 °F 79% 30.24 in 10.0 mi NNW 6.9 mph - N/A   Clear
11:15 PM 12.2 °F 0.7 °F 5.0 °F 73% 30.24 in 10.0 mi NNW 8.1 mph - N/A   Clear
11:35 PM 8.6 °F -3.7 °F 3.2 °F 79% 30.24 in 10.0 mi NNW 8.1 mph - N/A   Clear
11:55 PM 10.4 °F 2.2 °F 3.2 °F 73% 30.24 in 10.0 mi NNW 4.6 mph - N/A   Clear